Date,TemperatureHighF,TemperatureAvgF,TemperatureLowF,DewpointHighF,DewpointAvgF,DewpointLowF,HumidityHigh,HumidityAvg,HumidityLow,PressureMaxIn,PressureMinIn,WindSpeedMaxMPH,WindSpeedAvgMPH,GustSpeedMaxMPH,PrecipitationSumIn
2013-1-3,37.0,37.0,36.9,31.9,31.8,31.7,82,82,81,30.28,30.28,6,6,7,0.00
2013-1-4,46.6,39.1,27.3,29.1,26.6,23.3,91,62,44,30.48,30.37,13,3,13,0.00
2013-1-5,48.4,36.9,24.7,38.6,28.6,22.9,96,75,45,30.43,30.26,12,2,12,0.04
2013-1-6,48.9,42.0,38.4,41.1,37.9,31.5,98,86,67,30.32,30.15,19,3,19,0.04
2013-1-7,54.9,37.0,26.9,35.2,30.7,25.3,97,80,44,30.43,30.31,14,2,14,0.00
2013-1-8,28.6,26.6,25.7,27.6,26.0,25.0,98,97,96,30.38,30.32,2,0,2,0.00
2013-1-9,53.7,51.1,47.9,52.6,50.0,45.7,97,96,92,30.44,30.35,6,1,9,0.06
2013-1-10,64.3,54.8,49.1,57.3,52.3,48.3,98,91,78,30.43,30.10,5,2,8,0.00
2013-1-11,66.8,64.8,62.8,64.5,62.0,56.7,98,91,76,30.12,30.03,14,9,22,0.11
2013-1-12,71.4,66.7,61.7,65.7,63.5,58.5,97,90,79,30.09,29.95,12,6,17,0.04
2013-1-13,69.6,65.8,52.5,63.1,61.1,52.0,99,85,74,30.03,29.91,15,10,24,1.25
2013-1-14,52.5,43.4,38.1,51.7,43.0,37.8,100,98,96,30.27,30.03,12,6,17,1.72
2013-1-15,43.5,41.7,39.4,43.5,41.6,39.1,100,100,98,30.18,29.98,8,3,11,1.78
2013-1-16,49.3,44.9,42.9,48.5,44.5,41.9,100,99,95,30.07,29.93,9,3,12,0.21
2013-1-17,43.9,40.0,33.7,42.8,37.8,30.3,99,92,78,30.36,29.78,18,9,29,0.43
2013-1-18,50.2,36.2,27.7,35.9,30.9,27.1,99,83,48,30.57,30.36,5,1,9,0.00
2013-1-19,54.1,38.4,24.0,37.5,30.8,23.3,100,78,45,30.46,30.22,13,3,19,0.01
2013-1-20,61.1,41.5,29.2,42.0,34.6,28.5,99,80,44,30.24,30.13,6,1,11,0.00
2013-1-21,40.1,29.3,26.2,35.8,28.7,25.7,99,97,71,30.22,30.13,7,0,10,0.00
2013-1-23,50.1,43.0,35.1,32.4,28.4,19.6,80,58,39,30.31,30.17,10,4,14,0.00
2013-1-24,44.7,36.7,28.9,37.9,22.3,9.6,91,58,33,30.41,30.18,13,5,22,0.00
2013-1-25,35.5,33.0,29.1,35.2,25.9,11.1,99,77,44,30.39,30.15,14,4,19,0.01
2013-1-26,50.3,38.2,31.0,35.9,33.9,30.6,99,86,54,30.36,30.21,6,2,12,0.00
2013-1-27,49.9,40.8,30.4,39.4,34.0,28.6,93,78,62,30.47,30.33,7,3,12,0.00
2013-1-28,56.3,48.5,42.9,50.2,40.7,33.8,83,74,61,30.37,30.23,11,5,15,0.00
2013-1-30,67.0,53.0,40.8,65.2,51.5,35.9,99,95,76,29.79,29.51,36,8,36,1.85
2013-1-31,40.5,37.2,34.6,36.1,27.9,24.6,85,69,62,30.05,29.78,23,6,23,0.00